GSAT-11

Last updated on Thu Oct 30 2025 00:02:51 GMT+0000 (Coordinated Universal Time)

1 43824U 18100B 25302.52297583 -.00000067 00000+0 00000+0 0 9996 2 43824 0.0462 263.1706 0004241 222.9658 174.2337 1.00271248 25161
UTC large
Height (km)
Speed (km/s)
/
Latitude / Longitude
Inclination (degrees)
Orbital Period (minutes)
Azimuth
Elevation
Range (km)
Doppler Factor

Next 0 passes for location: London (51.5072 / 0.1276)

Sorry there are no passes over London.